Oklahoma City, OK

12:07 AM CST on January 19, 2018 (GMT -0600)
Will Rogers World

Weather History for KOKC - December, 2012

Change the Weather History Date:

Tuesday, December 25, 2012

  Actual Average Record
Temperature  
Mean Temperature 27 °F 39 °F  
Max Temperature 33 °F 49 °F 73 °F (1922)
Min Temperature 20 °F 29 °F -1 °F (1983)
Degree Days  
Heating Degree Days 38 26  
Month to date heating degree days 473 601  
Since 1 July heating degree days 1015 1200  
Cooling Degree Days 0 0  
Month to date cooling degree days 0  
Year to date cooling degree days 2099  
Moisture  
Dew Point 19 °F    
Average Humidity 75    
Maximum Humidity 88    
Minimum Humidity 61    
Precipitation  
Precipitation 0.06 in 0.06 in 1.05 in (1987)
Month to date precipitation 0.30 1.58  
Year to date precipitation 29.10 36.22  
Snow  
Snow 0.60 in - - ()
Month to date snowfall 0.6  
Snow Depth 1.00 in    
Sea Level Pressure  
Sea Level Pressure 29.98 in    
Wind  
Wind Speed 22 mph (NNE)    
Max Wind Speed 35 mph    
Max Gust Speed 44 mph    
Visibility 6 miles    
Events Rain , Snow    
T = Trace of Precipitation, MM = Missing Value Source: NWS Daily Summary

Daily Weather History Graph

Daily Weather History Graph

Search for Another Location

Airport or City:

Trip Planner

Search our weather history database for the weather conditions in past years. The results will help you decide how hot, cold, wet, or windy it might be!

Date:

Astronomy

Dec. 25, 2012 Rise Set
Actual Time 7:37 AM CST 5:24 PM CST
Civil Twilight 7:09 AM CST 5:52 PM CST
Nautical Twilight 6:37 AM CST 6:24 PM CST
Astronomical Twilight 6:06 AM CST 6:55 PM CST
Moon 3:31 PM CST (12/25) 5:12 AM CST (12/25)
Length of Visible Light 10h 43m
Length of Day
9h 46m
Waxing Gibbous, 94% of the Moon is Illuminated
Dec 25
Waxing Gibbous
Dec 28
Full
Jan 4
Last Quarter
Jan 11
New
Jan 18
First Quarter

Hourly Weather History & Observations

Time (CST) Temp. Windchill Dew Point Humidity Pressure Visibility Wind Dir Wind Speed Gust Speed Precip Events Conditions
12:52 AM 33.1 °F 23.4 °F 21.9 °F 64% 29.91 in 7.0 mi NE 13.8 mph 17.3 mph N/A   Overcast
1:18 AM 30.2 °F 18.5 °F 24.8 °F 80% 29.86 in 6.0 mi ENE 17.3 mph - 0.00 in Rain Light Freezing Rain
1:46 AM 30.2 °F 17.8 °F 24.8 °F 80% 29.85 in 6.0 mi ENE 19.6 mph 28.8 mph 0.01 in   Light Freezing Drizzle
1:52 AM 30.9 °F 19.8 °F 24.1 °F 76% 29.88 in 7.0 mi ENE 16.1 mph - 0.01 in   Light Freezing Drizzle
2:06 AM 30.2 °F 19.3 °F 24.8 °F 80% 29.86 in 6.0 mi ENE 15.0 mph - 0.00 in Rain Light Freezing Rain
2:52 AM 30.9 °F 20.2 °F 24.1 °F 76% 29.91 in 5.0 mi NE 15.0 mph - 0.01 in Rain Light Freezing Rain
3:52 AM 30.0 °F 15.7 °F 25.0 °F 82% 29.86 in 3.0 mi NE 26.5 mph - 0.02 in Rain Light Freezing Rain
4:34 AM 28.4 °F 15.4 °F 24.8 °F 86% 29.84 in 5.0 mi NNE 19.6 mph - 0.01 in   Haze
4:52 AM 28.9 °F 16.9 °F 24.1 °F 82% 29.87 in 4.0 mi NNE 17.3 mph 25.3 mph 0.01 in   Overcast
5:10 AM 28.4 °F 17.0 °F 24.8 °F 86% 29.86 in 5.0 mi NNE 15.0 mph 21.9 mph 0.00 in Rain Light Freezing Rain
5:52 AM 28.0 °F 16.5 °F 23.0 °F 81% 29.92 in 5.0 mi NNE 15.0 mph - 0.00 in Rain Light Freezing Rain
6:03 AM 28.4 °F 17.5 °F 23.0 °F 80% 29.89 in 4.0 mi NNE 13.8 mph - 0.00 in Rain Light Freezing Rain
6:33 AM 26.6 °F 13.1 °F 21.2 °F 80% 29.86 in 6.0 mi NNE 19.6 mph 28.8 mph 0.00 in Rain Light Freezing Rain
6:52 AM 27.0 °F 15.2 °F 21.9 °F 81% 29.89 in 6.0 mi North 15.0 mph 25.3 mph 0.00 in Rain Light Freezing Rain
6:56 AM 26.6 °F 13.8 °F 21.2 °F 80% 29.87 in 6.0 mi North 17.3 mph 26.5 mph 0.00 in   Light Freezing Drizzle
7:03 AM 26.6 °F 14.3 °F 21.2 °F 80% 29.88 in 6.0 mi NNE 16.1 mph 26.5 mph 0.00 in   Light Freezing Drizzle
7:36 AM 26.6 °F 13.4 °F 19.4 °F 74% 29.89 in 8.0 mi NNE 18.4 mph 27.6 mph 0.00 in   Light Freezing Drizzle
7:44 AM 24.8 °F 10.3 °F 19.4 °F 80% 29.90 in 8.0 mi NNE 20.7 mph 26.5 mph 0.00 in   Light Freezing Drizzle
7:52 AM 25.0 °F 11.7 °F 19.9 °F 81% 29.91 in 8.0 mi NNE 17.3 mph 27.6 mph 0.00 in   Light Freezing Drizzle
8:52 AM 24.1 °F 9.4 °F 19.0 °F 81% 29.95 in 7.0 mi NNE 20.7 mph - 0.00 in   Light Freezing Drizzle
9:10 AM 24.8 °F 10.3 °F 19.4 °F 80% 29.91 in 7.0 mi North 20.7 mph 28.8 mph 0.00 in   Light Freezing Drizzle
9:30 AM 24.8 °F 9.6 °F 19.4 °F 80% 29.89 in 6.0 mi North 23.0 mph 29.9 mph 0.00 in   Light Freezing Drizzle
9:52 AM 24.1 °F 8.7 °F 18.0 °F 77% 29.96 in 5.0 mi North 23.0 mph - 0.00 in   Light Freezing Drizzle
10:31 AM 24.8 °F 10.0 °F 19.4 °F 80% 29.93 in 3.0 mi North 21.9 mph 28.8 mph 0.01 in Snow Light Snow
10:36 AM 24.8 °F 10.7 °F 19.4 °F 80% 29.93 in 1.8 mi North 19.6 mph 29.9 mph 0.01 in Snow Light Snow
10:52 AM 24.1 °F 10.1 °F 19.0 °F 81% 29.99 in 1.2 mi North 18.4 mph 29.9 mph 0.01 in Snow Light Snow
11:16 AM 24.8 °F 9.0 °F 19.4 °F 80% 29.97 in 1.5 mi North 25.3 mph 32.2 mph 0.00 in Snow Light Snow
11:23 AM 23.0 °F 6.9 °F 19.4 °F 86% 29.97 in 1.0 mi North 24.2 mph 32.2 mph 0.00 in Snow Light Snow
11:34 AM 23.0 °F 6.6 °F 17.6 °F 80% 29.98 in 0.8 mi North 25.3 mph 32.2 mph 0.00 in Snow Light Snow
11:45 AM 23.0 °F 6.6 °F 17.6 °F 80% 29.97 in 1.0 mi North 25.3 mph 35.7 mph 0.00 in Snow Light Snow
11:49 AM 23.0 °F 6.6 °F 17.6 °F 80% 29.97 in 0.8 mi North 25.3 mph 35.7 mph 0.00 in Snow Light Snow
11:52 AM 23.0 °F 7.6 °F 19.0 °F 85% 30.01 in 0.8 mi North 21.9 mph 33.4 mph 0.00 in Snow Light Snow
12:12 PM 23.0 °F 8.3 °F 19.4 °F 86% 29.98 in 0.5 mi North 19.6 mph - 0.00 in Snow Light Snow
12:25 PM 24.8 °F 9.6 °F 19.4 °F 80% 29.99 in 0.8 mi North 23.0 mph 29.9 mph 0.00 in Snow Light Snow
12:36 PM 24.8 °F 9.3 °F 19.4 °F 80% 29.98 in 1.0 mi North 24.2 mph - 0.00 in Snow Light Snow
12:52 PM 24.1 °F 8.0 °F 19.0 °F 81% 30.02 in 1.5 mi North 25.3 mph 32.2 mph 0.00 in Snow Light Snow
1:12 PM 24.8 °F 9.6 °F 19.4 °F 80% 29.99 in 1.5 mi North 23.0 mph 32.2 mph 0.00 in Snow Light Snow
1:30 PM 24.8 °F 8.4 °F 19.4 °F 80% 29.98 in 5.0 mi North 27.6 mph 33.4 mph 0.00 in   Overcast
1:52 PM 25.0 °F 9.2 °F 19.0 °F 78% 30.02 in 6.0 mi North 25.3 mph 35.7 mph 0.00 in   Overcast
2:52 PM 25.0 °F 8.6 °F 19.0 °F 78% 30.04 in 7.0 mi North 27.6 mph 39.1 mph N/A   Overcast
3:52 PM 25.0 °F 7.6 °F 18.0 °F 75% 30.06 in 9.0 mi North 32.2 mph 42.6 mph N/A   Overcast
4:52 PM 25.0 °F 9.5 °F 17.1 °F 72% 30.09 in 10.0 mi North 24.2 mph 35.7 mph N/A   Overcast
5:29 PM 24.8 °F 9.0 °F 17.6 °F 74% 30.05 in 10.0 mi North 25.3 mph 33.4 mph N/A   Overcast
5:52 PM 26.1 °F 11.3 °F 17.1 °F 69% 30.09 in 10.0 mi North 23.0 mph 31.1 mph N/A   Overcast
6:52 PM 25.0 °F 8.6 °F 15.1 °F 66% 30.10 in 10.0 mi North 27.6 mph 41.4 mph N/A   Mostly Cloudy
7:52 PM 23.0 °F 6.6 °F 12.9 °F 65% 30.14 in 10.0 mi North 25.3 mph 38.0 mph N/A   Mostly Cloudy
8:52 PM 21.0 °F 3.6 °F 12.0 °F 68% 30.17 in 10.0 mi North 26.5 mph 35.7 mph N/A   Overcast
9:52 PM 19.9 °F 3.5 °F 9.0 °F 62% 30.21 in 10.0 mi North 21.9 mph 32.2 mph N/A   Overcast
10:52 PM 19.9 °F 4.8 °F 9.0 °F 62% 30.25 in 10.0 mi North 18.4 mph 32.2 mph N/A   Overcast
11:52 PM 19.4 °F 2.5 °F 8.6 °F 63% 30.21 in 10.0 mi North 23.0 mph 29.9 mph N/A   Overcast